This is the latest recevied weather packets stored in our database for station/object NC4J. If no packets are shown the sender has not sent any weather packets the latest 10 day(s).
| Time | Temp. | Humidity | Pressure | Rain* | Wind** | Luminosity | Snow |
|---|---|---|---|---|---|---|---|
| 1777509198 | 20° C | 68% | 1011.6 hPa | 0 mm | - | 0 W/m² | - |
| 1777508895 | 20° C | 68% | 1011.3 hPa | 0 mm | - | 0 W/m² | - |
| 1777508592 | 20° C | 69% | 1011.2 hPa | 0 mm | - | 1 W/m² | - |
| 1777508289 | 20.56° C | 67% | 1010.8 hPa | 0 mm | - | 1 W/m² | - |
| 1777507986 | 20.56° C | 67% | 1011.2 hPa | 0 mm | - | 2 W/m² | - |
| 1777507683 | 20.56° C | 65% | 1010.9 hPa | 0 mm | - | 3 W/m² | - |
| 1777507380 | 21.11° C | 64% | 1011.3 hPa | 0 mm | - | 4 W/m² | - |
| 1777507077 | 21.67° C | 62% | 1010.8 hPa | 0 mm | - | 6 W/m² | - |
| 1777506775 | 21.67° C | 60% | 1010.9 hPa | 0 mm | - | 11 W/m² | - |
| 1777506470 | 22.22° C | 58% | 1011.2 hPa | 0 mm | - | 14 W/m² | - |
| 1777506166 | 22.78° C | 56% | 1010.8 hPa | 0 mm | - | 9 W/m² | - |
| 1777505863 | 22.78° C | 54% | 1010.8 hPa | 0 mm | - | 10 W/m² | - |
| 1777505559 | 23.33° C | 53% | 1010.9 hPa | 0 mm | - | 8 W/m² | - |
| 1777505257 | 23.33° C | 50% | 1010.8 hPa | 0 mm | - | 14 W/m² | - |
| 1777504953 | 23.33° C | 48% | 1010.6 hPa | 0 mm | - | 11 W/m² | - |
| 1777504650 | 23.89° C | 47% | 1010.5 hPa | 0 mm | - | 15 W/m² | - |
| 1777504347 | 23.33° C | 46% | 1010.4 hPa | 0 mm | - | 22 W/m² | - |
| 1777504046 | 23.89° C | 46% | 1010.7 hPa | 0 mm | - | 22 W/m² | - |
| 1777503744 | 23.89° C | 45% | 1010.4 hPa | 0 mm | - | 32 W/m² | - |
| 1777503441 | 23.89° C | 46% | 1010.4 hPa | 0 mm | - | 37 W/m² | - |
| 1777503136 | 24.44° C | 45% | 1010.4 hPa | 0 mm | - | 55 W/m² | - |
| 1777502834 | 24.44° C | 44% | 1010.3 hPa | 0 mm | - | 48 W/m² | - |
| 1777502531 | 23.89° C | 44% | 1010.5 hPa | 0 mm | - | 88 W/m² | - |
| 1777502228 | 23.89° C | 43% | 1010.5 hPa | 0 mm | - | 54 W/m² | - |
| 1777501925 | 24.44° C | 43% | 1010.5 hPa | 0 mm | - | 60 W/m² | - |
* Rain latest hour (hover to see other rain measurements)
** Current wind speed in m/s (hover to see current wind gust speed)